Wind_Speed
34 34 35 37 38 39 39 40 40 40 40 40 40 41 41 41 41 40 40 40 40 41 41 40 41 41 41 42 42 42 42 42 43 44 44 44 43 42 42 42 40 40 41
33 34 35 35 36 37 38 39 40 41 41 41 41 41 41 41 41 41 41 41 40 40 41 41 41 41 41 41 41 41 42 43 43 44 45 45 45 44 43 43 42 41 42
31 32 33 34 35 36 37 38 39 40 40 41 41 41 41 42 41 40 40 41 41 41 41 41 41 41 41 41 41 40 41 41 42 43 45 45 44 44 44 43 43 43 43
30 31 32 33 33 34 35 37 37 38 39 40 40 40 40 40 40 40 40 40 40 40 40 40 40 41 42 42 42 41 41 41 42 43 44 44 44 44 43 43 43 44 44
29 30 30 31 32 32 33 34 35 36 37 38 38 39 39 38 38 38 39 39 39 40 40 40 40 41 41 41 41 41 41 41 42 42 42 42 42 43 44 44 44 45 45
27 28 28 29 31 32 33 33 34 35 35 35 36 37 37 38 38 37 38 38 39 39 39 40 41 40 40 41 41 40 41 41 42 42 42 42 42 42 42 43 44 45 45
24 26 27 27 28 30 32 32 32 33 34 34 35 36 37 38 38 38 38 39 39 39 40 40 40 40 40 40 40 40 40 41 40 41 41 41 41 40 41 41 42 43 43
23 25 26 27 28 29 30 31 32 32 32 33 33 34 36 37 37 38 39 39 39 40 41 41 40 40 40 40 40 40 40 40 40 39 39 39 40 40 41 41 42 42 42
22 23 24 25 26 28 29 29 30 31 32 32 31 32 33 34 35 37 38 38 38 39 40 41 40 40 40 39 39 39 39 39 39 38 38 39 39 39 40 40 41 41 41
20 21 22 23 24 25 26 27 27 29 30 31 32 32 33 33 34 35 35 36 37 37 38 38 38 38 38 38 38 38 38 38 39 39 39 39 38 38 39 39 39 40 40
20 20 21 22 23 23 25 25 27 28 29 29 30 31 31 31 32 33 35 36 36 36 37 37 37 37 37 37 38 38 38 38 38 39 39 39 39 39 39 39 38 39 40
22 22 22 23 23 23 24 26 26 27 28 29 29 30 31 32 32 32 33 34 35 35 36 36 36 36 36 36 37 37 37 37 38 38 38 38 39 39 39 39 39 39 39
23 23 23 23 24 24 24 25 25 26 26 27 28 28 29 29 30 31 32 32 33 34 35 36 36 36 36 36 36 36 36 36 36 37 37 37 37 38 37 37 38 38 38
23 23 23 23 24 24 24 24 24 24 25 26 26 27 27 28 28 29 30 30 31 32 33 34 35 36 36 35 35 35 35 35 35 34 34 34 34 35 36 36 37 37 37
23 23 23 23 23 23 24 23 23 24 24 25 25 26 27 27 27 28 28 29 29 30 31 32 33 34 34 34 34 35 34 34 33 33 33 33 34 35 36 36 36 36 37
24 25 25 24 24 24 24 24 24 24 24 24 25 25 26 26 27 27 27 27 28 29 29 30 31 32 32 33 33 33 33 33 33 34 34 34 35 35 35 36 36 36 36
25 26 26 26 25 26 25 25 25 24 25 25 25 26 26 26 26 27 27 27 27 28 28 29 30 30 31 31 31 31 32 32 32 32 33 33 34 34 35 35 35 35 36
28 27 27 27 27 27 27 27 27 27 27 26 26 26 26 26 25 25 26 26 26 27 28 29 29 30 30 31 31 31 31 31 31 31 32 32 33 33 34 34 34 35 36
28 29 29 29 29 29 28 28 28 28 28 27 27 27 27 27 26 26 26 26 26 26 27 28 29 29 29 30 30 29 29 30 30 31 31 32 33 34 34 34 34 35 36
30 30 30 30 30 30 29 28 28 28 28 27 27 27 26 26 27 26 26 27 27 27 27 28 28 29 29 29 29 29 29 29 29 30 31 32 33 33 33 33 33 34 35
31 31 31 31 31 31 31 30 29 29 30 29 28 28 27 27 27 27 27 27 28 28 28 29 29 29 30 30 30 30 30 30 30 31 31 32 33 33 34 34 35 36 37
32 32 32 32 32 32 32 31 31 31 31 30 30 29 28 28 29 29 28 28 29 29 29 29 30 30 31 32 32 31 31 32 32 32 33 33 34 34 34 35 35 36 37
33 34 34 33 33 34 33 32 31 31 31 31 30 30 29 29 29 30 29 29 30 31 31 30 30 31 31 31 32 32 33 33 33 33 34 34 34 34 35 36 36 36 37
35 36 36 35 34 34 34 34 33 32 32 31 31 31 30 30 30 31 31 32 32 32 32 32 32 31 32 32 32 33 33 33 33 34 34 35 35 35 35 36 36 36 37
37 37 38 37 36 36 36 36 35 34 33 33 33 33 33 33 32 32 32 33 33 33 33 33 33 32 32 33 33 34 34 34 34 34 34 35 35 35 34 35 36 36 37
39 39 39 39 38 37 37 37 37 36 35 34 35 35 34 34 34 33 33 34 35 35 34 34 34 34 34 34 34 34 34 34 34 34 35 35 35 35 35 36 36 36 36
Wind_Direction
248 248 249 250 251 251 251 251 252 253 254 255 255 255 255 256 257 257 256 255 256 256 255 255 256 257 258 258 258 259 260 261 262 263 264 266 267 270 271 272 273 274 274
251 251 251 252 253 253 253 252 253 254 255 255 255 255 255 256 258 258 257 257 258 257 257 256 256 256 257 258 258 259 260 261 262 263 265 266 267 269 270 270 271 273 273
252 253 253 253 254 254 254 254 254 255 255 255 256 255 255 256 257 258 258 257 257 257 257 256 256 256 256 257 258 259 261 263 264 264 265 266 267 268 269 270 271 272 273
255 254 254 254 254 254 254 254 254 255 254 255 256 255 255 255 255 256 257 257 257 258 257 256 256 256 256 256 258 259 261 263 265 266 266 267 267 269 268 269 270 271 273
255 254 255 255 254 254 253 254 255 254 254 254 255 254 254 254 255 256 257 256 256 256 256 255 255 256 256 257 259 260 261 263 266 267 267 267 268 269 269 268 269 271 273
256 256 257 257 255 254 254 255 254 253 253 254 254 254 254 254 255 256 257 256 257 256 256 255 255 257 258 258 259 261 263 265 266 267 266 267 268 270 270 270 270 272 273
259 258 260 259 258 257 256 256 254 253 254 254 255 255 255 254 255 255 256 257 257 256 255 255 256 257 258 259 260 261 263 265 267 267 267 267 268 270 270 272 273 273 274
262 262 262 260 259 258 257 256 254 254 254 255 256 255 255 255 254 255 256 256 256 256 255 256 258 258 259 260 260 262 263 264 266 266 266 268 269 270 272 273 274 273 274
264 263 263 262 261 259 258 258 257 256 255 255 256 256 256 256 256 256 257 256 256 256 256 256 257 258 259 260 261 261 263 264 264 265 266 268 270 271 272 273 274 274 275
268 266 265 265 264 261 258 258 257 257 257 257 257 258 259 258 257 256 256 256 256 257 257 257 257 258 259 259 260 262 264 265 265 267 268 269 270 271 272 273 275 276 277
268 269 269 268 267 265 263 262 260 259 258 259 259 260 261 261 260 259 258 257 257 256 256 257 258 259 259 261 262 263 264 266 266 267 268 269 269 269 272 273 274 277 278
269 270 271 269 269 268 266 265 264 262 260 260 261 263 263 263 263 262 261 260 259 258 257 257 258 259 261 262 263 264 265 266 266 267 267 268 269 270 271 273 274 277 279
271 270 270 270 269 268 268 267 265 262 262 262 263 263 263 263 263 263 262 262 261 259 258 258 258 259 260 262 263 264 265 265 266 267 267 267 268 269 271 272 274 276 277
273 271 271 270 270 269 270 269 266 264 263 264 264 264 265 265 265 264 262 262 261 260 259 259 259 259 259 260 261 262 263 263 265 265 266 267 267 269 271 273 275 276 277
273 272 272 270 269 270 269 269 268 266 266 266 266 266 267 267 267 266 265 264 262 261 260 260 260 260 259 259 260 261 262 262 263 265 266 267 269 270 271 273 275 277 278
273 273 274 273 271 270 270 268 268 267 267 267 267 268 269 268 267 266 265 265 264 263 262 261 260 259 259 261 262 262 262 262 265 266 266 268 269 271 272 274 275 277 278
274 274 275 275 272 271 270 269 268 267 267 269 269 270 270 268 267 265 265 264 263 262 260 259 260 260 260 261 261 261 261 263 265 265 266 267 269 271 272 274 275 276 278
274 274 275 275 273 271 270 269 267 266 266 268 270 270 269 268 267 266 266 265 263 261 260 261 260 261 261 260 260 262 264 264 264 265 267 268 270 273 275 275 275 277 280
273 274 274 274 274 272 270 269 267 266 266 266 269 270 269 267 266 266 266 264 262 261 261 262 262 262 262 262 262 264 265 265 266 267 269 270 272 274 275 275 276 279 281
274 273 273 273 273 272 271 270 268 266 265 266 268 269 268 266 266 266 265 264 263 263 263 264 264 263 264 265 264 264 266 266 268 270 271 272 273 274 275 277 278 280 282
274 273 272 272 272 272 270 269 267 266 265 266 268 269 268 267 266 265 264 264 264 264 265 265 265 264 264 266 266 267 266 268 270 271 272 273 275 275 276 277 279 281 283
274 273 272 271 271 271 270 268 266 265 264 265 266 267 267 266 266 265 265 265 264 264 265 265 266 266 265 266 266 267 267 269 270 271 273 274 276 276 277 279 281 283 284
275 273 271 271 271 270 269 267 265 264 264 264 265 265 264 264 265 265 264 264 265 265 265 266 267 266 267 266 266 267 268 270 270 272 273 275 276 277 278 280 282 284 285
274 272 271 270 270 269 268 266 264 263 264 264 264 265 265 265 265 265 264 265 265 266 265 266 267 268 267 268 268 269 269 269 270 271 273 275 276 276 278 280 282 284 286
274 271 270 269 268 267 267 265 263 262 263 263 262 263 264 265 265 265 265 265 265 265 265 265 266 267 267 268 269 270 270 271 270 271 273 274 275 276 278 281 283 285 286
273 271 270 269 267 265 264 263 263 262 262 263 262 262 263 264 264 265 265 266 265 264 265 265 266 266 267 268 269 270 271 272 272 272 273 274 275 277 279 282 284 285 287
Height
5736 5737 5739 5740 5740 5741 5743 5744 5745 5747 5748 5749 5751 5752 5754 5754 5755 5756 5758 5759 5761 5763 5764 5766 5767 5769 5770 5772 5773 5775 5775 5776 5777 5778 5779 5779 5779 5779 5779 5779 5779 5779 5778
5729 5730 5731 5732 5732 5733 5734 5735 5737 5738 5739 5741 5742 5743 5744 5745 5747 5748 5749 5750 5752 5754 5755 5756 5758 5759 5761 5762 5764 5765 5766 5767 5767 5768 5769 5770 5771 5770 5770 5770 5770 5770 5769
5722 5723 5723 5724 5724 5725 5726 5727 5728 5729 5730 5731 5733 5734 5735 5737 5738 5739 5740 5742 5743 5744 5746 5747 5748 5750 5751 5753 5754 5756 5757 5758 5758 5758 5759 5760 5761 5761 5761 5761 5760 5760 5760
5715 5715 5716 5716 5716 5717 5717 5718 5719 5720 5721 5722 5724 5725 5726 5728 5729 5730 5731 5733 5734 5735 5736 5737 5739 5740 5742 5743 5745 5746 5747 5748 5749 5749 5749 5750 5750 5751 5752 5751 5751 5750 5750
5708 5708 5708 5708 5709 5709 5709 5710 5710 5711 5713 5714 5715 5716 5718 5719 5720 5722 5723 5724 5725 5726 5727 5729 5730 5731 5732 5734 5735 5737 5738 5739 5739 5740 5740 5740 5740 5740 5741 5741 5741 5740 5740
5701 5701 5701 5701 5701 5701 5702 5702 5703 5703 5704 5705 5707 5708 5709 5711 5712 5713 5714 5715 5716 5717 5718 5719 5721 5722 5723 5725 5726 5727 5728 5729 5730 5730 5730 5730 5730 5730 5730 5731 5731 5731 5730
5694 5694 5694 5693 5694 5694 5694 5695 5695 5696 5697 5698 5699 5700 5701 5702 5703 5704 5705 5706 5707 5708 5709 5711 5712 5713 5714 5716 5717 5718 5719 5720 5720 5721 5720 5720 5720 5721 5721 5721 5721 5720 5720
5688 5687 5687 5686 5686 5686 5687 5687 5688 5688 5689 5690 5691 5691 5692 5693 5694 5696 5696 5697 5698 5699 5700 5702 5703 5704 5705 5707 5708 5709 5710 5711 5711 5711 5711 5711 5711 5711 5711 5711 5711 5711 5711
5682 5681 5680 5680 5679 5679 5679 5680 5680 5681 5681 5682 5683 5683 5684 5685 5686 5686 5687 5688 5689 5690 5691 5692 5694 5695 5696 5698 5699 5700 5701 5702 5702 5702 5702 5702 5702 5702 5702 5702 5701 5701 5701
5677 5675 5674 5673 5673 5672 5672 5672 5672 5673 5673 5674 5674 5675 5676 5676 5677 5677 5678 5679 5680 5680 5682 5683 5685 5686 5687 5689 5690 5691 5692 5692 5693 5693 5693 5693 5693 5693 5693 5693 5692 5691 5691
5671 5670 5668 5667 5666 5666 5666 5666 5665 5666 5666 5666 5666 5667 5667 5667 5668 5668 5669 5670 5670 5671 5673 5674 5675 5677 5678 5679 5681 5682 5683 5683 5684 5684 5684 5684 5684 5684 5684 5683 5683 5682 5681
5665 5664 5662 5661 5660 5659 5659 5659 5658 5658 5658 5658 5659 5659 5659 5659 5659 5659 5660 5660 5661 5662 5663 5665 5666 5668 5669 5670 5672 5673 5674 5674 5674 5674 5675 5675 5674 5675 5675 5674 5673 5672 5671
5658 5657 5656 5654 5653 5652 5652 5651 5651 5651 5651 5651 5651 5651 5651 5651 5651 5651 5651 5651 5652 5653 5654 5655 5657 5659 5660 5661 5663 5663 5664 5664 5665 5665 5665 5665 5665 5665 5665 5665 5664 5663 5662
5650 5649 5648 5648 5647 5646 5645 5644 5644 5644 5644 5644 5644 5644 5644 5643 5643 5643 5643 5643 5643 5644 5645 5646 5648 5649 5651 5652 5653 5654 5655 5655 5656 5656 5656 5656 5656 5656 5656 5655 5655 5654 5653
5643 5642 5641 5640 5640 5639 5638 5637 5637 5637 5637 5637 5636 5636 5636 5636 5635 5635 5635 5635 5635 5635 5636 5637 5639 5640 5642 5643 5644 5645 5646 5646 5647 5647 5647 5647 5647 5647 5647 5646 5645 5644 5643
5636 5635 5634 5633 5632 5631 5631 5630 5630 5629 5629 5629 5629 5629 5628 5628 5627 5627 5627 5627 5627 5627 5628 5629 5630 5632 5633 5634 5635 5636 5637 5637 5638 5638 5638 5638 5638 5638 5637 5637 5636 5635 5633
5628 5627 5626 5626 5625 5624 5623 5623 5622 5622 5622 5622 5622 5621 5621 5620 5620 5619 5619 5619 5619 5620 5620 5621 5622 5623 5624 5625 5626 5627 5628 5628 5629 5629 5629 5629 5629 5628 5628 5627 5626 5625 5623
5620 5619 5618 5617 5616 5616 5615 5615 5615 5614 5614 5614 5614 5613 5613 5612 5612 5612 5611 5611 5611 5612 5612 5613 5615 5616 5616 5617 5618 5619 5619 5619 5620 5620 5620 5620 5620 5619 5619 5618 5617 5615 5614
5612 5610 5610 5609 5608 5607 5607 5607 5607 5606 5606 5606 5606 5605 5604 5604 5604 5604 5604 5603 5604 5604 5605 5606 5606 5607 5608 5609 5609 5610 5610 5611 5611 5611 5611 5611 5611 5610 5609 5609 5607 5606 5604
5602 5601 5601 5600 5599 5598 5598 5598 5598 5598 5598 5597 5597 5597 5596 5596 5596 5596 5596 5596 5596 5596 5597 5597 5598 5599 5600 5600 5601 5601 5602 5602 5602 5602 5602 5602 5602 5601 5600 5599 5598 5596 5594
5592 5591 5591 5591 5590 5589 5589 5589 5589 5588 5588 5588 5589 5589 5588 5588 5588 5588 5588 5588 5588 5588 5589 5589 5590 5590 5591 5591 5592 5592 5593 5593 5593 5593 5593 5593 5592 5591 5590 5589 5588 5586 5584
5583 5582 5581 5581 5580 5579 5579 5579 5579 5579 5579 5579 5580 5580 5580 5580 5580 5580 5580 5580 5580 5580 5580 5580 5581 5581 5582 5582 5582 5583 5583 5583 5584 5584 5583 5583 5582 5581 5580 5579 5577 5575 5573
5572 5571 5570 5570 5570 5569 5568 5569 5569 5569 5570 5570 5570 5570 5570 5571 5571 5571 5571 5571 5571 5571 5571 5572 5572 5572 5572 5572 5573 5573 5573 5573 5574 5573 5573 5572 5571 5571 5569 5568 5566 5564 5562
5560 5559 5559 5559 5559 5558 5558 5558 5558 5559 5560 5560 5561 5561 5561 5561 5561 5561 5561 5562 5562 5562 5562 5562 5562 5562 5563 5563 5563 5563 5563 5563 5563 5563 5563 5562 5561 5560 5559 5557 5555 5553 5551
5547 5547 5546 5546 5547 5546 5546 5546 5547 5548 5549 5550 5550 5550 5551 5551 5551 5551 5551 5551 5552 5552 5552 5552 5552 5552 5553 5553 5553 5553 5553 5553 5552 5552 5552 5551 5550 5549 5548 5546 5544 5542 5540
5534 5534 5533 5533 5533 5533 5534 5535 5535 5536 5538 5538 5539 5540 5540 5540 5540 5540 5541 5540 5541 5541 5541 5542 5542 5542 5542 5542 5542 5542 5542 5541 5541 5541 5541 5540 5539 5538 5537 5535 5533 5531 5529